Du Bois, PA

12:10 PM EST on December 13, 2017 (GMT -0500)
Du Bois-Jefferson County

Weather History for KDUJ - April, 2014

Change the Weather History Date:

Tuesday, April 1, 2014

  Actual Average Record
Temperature  
Mean Temperature 53 °F 41 °F  
Max Temperature 72 °F 51 °F 80 °F (1986)
Min Temperature 34 °F 31 °F 11 °F (1964)
Degree Days  
Heating Degree Days 12 24  
Month to date heating degree days 12 24  
Since 1 July heating degree days 6110 5982  
Cooling Degree Days 0 0  
Month to date cooling degree days 0 0  
Year to date cooling degree days 0 0  
Growing Degree Days 3 (Base 50)    
Moisture  
Dew Point 26 °F    
Average Humidity 42    
Maximum Humidity 69    
Minimum Humidity 14    
Precipitation  
Precipitation 0.00 in 0.12 in 0.61 in (1998)
Month to date precipitation 0.00 0.12  
Sea Level Pressure  
Sea Level Pressure 29.99 in    
Wind  
Wind Speed 11 mph (SSE)    
Max Wind Speed 29 mph    
Max Gust Speed 38 mph    
Visibility 10 miles    
Events      
T = Trace of Precipitation, MM = Missing Value Source: NWS Daily Summary

Daily Weather History Graph

Daily Weather History Graph

Search for Another Location

Airport or City:

Trip Planner

Search our weather history database for the weather conditions in past years. The results will help you decide how hot, cold, wet, or windy it might be!

Date:

Astronomy

Apr. 01, 2014 Rise Set
Actual Time 6:58 AM EDT 7:40 PM EDT
Civil Twilight 6:31 AM EDT 8:08 PM EDT
Nautical Twilight 5:58 AM EDT 8:41 PM EDT
Astronomical Twilight 5:24 AM EDT 9:15 PM EDT
Moon 7:59 AM EDT (4/1) 10:02 PM EDT (4/1)
Length of Visible Light 13h 37m
Length of Day
12h 41m
Waxing Crescent, 4% of the Moon is Illuminated
Apr 1
Waxing Crescent
Apr 7
First Quarter
Apr 15
Full
Apr 22
Last Quarter
Apr 29
New

Hourly Weather History & Observations

Time (EDT) Temp. Windchill Dew Point Humidity Pressure Visibility Wind Dir Wind Speed Gust Speed Precip Events Conditions
12:56 AM 39.9 °F 35.8 °F 21.9 °F 49% 30.13 in 10.0 mi East 5.8 mph - N/A   Clear
1:56 AM 37.9 °F 32.1 °F 23.0 °F 55% 30.12 in 10.0 mi East 8.1 mph - N/A   Clear
2:56 AM 35.1 °F 29.3 °F 23.0 °F 61% 30.10 in 10.0 mi East 6.9 mph - N/A   Clear
3:56 AM 37.0 °F 29.8 °F 24.1 °F 59% 30.08 in 10.0 mi East 10.4 mph - N/A   Clear
4:56 AM 37.0 °F 31.6 °F 24.1 °F 59% 30.09 in 10.0 mi East 6.9 mph - N/A   Clear
5:56 AM 36.0 °F 29.0 °F 25.0 °F 64% 30.09 in 10.0 mi East 9.2 mph - N/A   Clear
6:56 AM 34.0 °F 29.8 °F 24.1 °F 67% 30.09 in 10.0 mi ESE 4.6 mph - N/A   Clear
7:56 AM 36.0 °F 31.1 °F 25.0 °F 64% 30.09 in 10.0 mi ESE 5.8 mph - N/A   Clear
8:56 AM 37.9 °F 31.5 °F 25.0 °F 60% 30.08 in 10.0 mi ESE 9.2 mph - N/A   Clear
9:56 AM 43.0 °F 36.4 °F 26.1 °F 51% 30.06 in 10.0 mi ESE 12.7 mph - N/A   Clear
10:56 AM 46.9 °F - 27.0 °F 46% 30.04 in 10.0 mi SE 8.1 mph - N/A   Clear
11:56 AM 50.0 °F - 26.1 °F 39% 30.01 in 10.0 mi SE 9.2 mph - N/A   Overcast
12:56 PM 54.0 °F - 28.9 °F 38% 29.98 in 10.0 mi SE 9.2 mph - N/A   Mostly Cloudy
1:56 PM 57.9 °F - 30.0 °F 35% 29.94 in 10.0 mi SE 8.1 mph - N/A   Mostly Cloudy
2:56 PM 64.0 °F - 30.0 °F 28% 29.89 in 10.0 mi South 8.1 mph 19.6 mph N/A   Clear
3:56 PM 69.1 °F - 32.0 °F 25% 29.86 in 10.0 mi SW 15.0 mph 23.0 mph N/A   Clear
4:56 PM 70.0 °F - 32.0 °F 25% 29.83 in 10.0 mi SW 24.2 mph 31.1 mph N/A   Partly Cloudy
5:56 PM 72.0 °F - 27.0 °F 19% 29.82 in 10.0 mi SW 19.6 mph 26.5 mph N/A   Clear
6:56 PM 69.1 °F - 18.0 °F 14% 29.85 in 10.0 mi WSW 18.4 mph 28.8 mph N/A   Clear
7:56 PM 64.0 °F - 24.1 °F 22% 29.88 in 10.0 mi WSW 11.5 mph - N/A   Clear
8:56 PM 63.0 °F - 26.1 °F 25% 29.91 in 10.0 mi WSW 10.4 mph - N/A   Clear
9:56 PM 62.1 °F - 25.0 °F 24% 29.91 in 10.0 mi WSW 13.8 mph - N/A   Clear
10:56 PM 61.0 °F - 21.9 °F 22% 29.93 in 10.0 mi West 13.8 mph - N/A   Clear
11:56 PM 55.9 °F - 30.9 °F 39% 29.95 in 10.0 mi NW 10.4 mph - N/A   Clear